Theta_e
287 293 294 294 295 294 290 289 288 291 306 313 319 320 321 324 327 327 327 329 331 332 334 336 339 339 341 341 340 341 340 338 344 350 356 357 355 356 355 355 353 352 349 348
287 293 294 293 296 304 302 299 306 307 309 318 319 320 319 321 323 324 327 327 331 332 333 334 336 337 339 342 344 347 346 348 349 353 354 354 356 356 355 355 355 354 352 351
284 291 292 288 295 304 309 310 309 305 310 319 318 318 318 318 321 322 325 328 329 330 332 333 335 337 338 341 345 345 345 347 351 352 352 355 356 356 355 355 357 355 355 354
285 289 282 290 310 311 309 311 312 312 317 318 317 317 319 320 320 321 324 327 329 331 332 333 334 337 339 337 338 339 339 341 344 346 348 343 353 356 355 357 355 355 356 356
287 284 292 306 311 310 306 308 316 318 317 318 319 319 318 322 323 322 324 327 330 331 331 330 331 333 334 332 333 334 335 338 341 343 344 344 341 346 349 349 344 347 355 355
288 287 285 294 309 313 314 303 318 319 317 316 315 306 311 320 323 322 324 326 327 328 328 328 328 330 330 329 330 330 332 335 340 343 344 345 346 341 340 339 340 341 341 350
289 289 291 298 309 311 298 298 318 320 318 318 312 314 318 322 321 322 322 325 326 326 325 325 326 327 326 326 326 329 332 337 341 343 344 347 350 339 336 336 337 340 341 339
288 289 288 307 309 301 304 314 319 321 320 318 317 320 321 321 320 321 321 323 324 322 323 325 323 323 323 323 325 329 332 337 338 340 343 347 349 342 338 337 337 340 339 338
292 291 298 307 308 312 314 315 314 316 318 319 318 319 318 318 319 320 321 322 322 321 322 323 322 321 319 321 324 327 330 334 335 338 341 341 341 349 349 347 346 346 344 346
299 302 306 311 313 314 313 314 314 317 318 317 315 316 315 315 315 317 318 320 320 321 320 320 320 319 318 320 322 325 328 331 333 335 335 332 330 335 337 336 340 340 340 338
300 304 309 311 312 313 312 314 314 314 314 313 313 312 313 313 314 316 317 320 319 319 319 320 317 316 316 318 319 321 326 329 330 333 335 331 317 313 324 315 314 329 329 330
297 306 308 311 312 314 311 310 311 311 312 313 313 312 313 311 312 314 316 317 317 316 318 318 316 315 315 316 317 318 322 325 325 329 332 334 327 319 309 304 302 304 305 312
303 309 306 312 312 313 310 310 312 311 312 312 312 313 313 310 311 312 313 314 315 316 316 316 315 313 312 314 315 317 317 321 322 324 328 329 330 329 321 316 304 301 301 300
308 308 306 310 308 311 312 312 312 311 311 311 312 312 311 310 313 312 312 313 314 313 314 315 313 311 311 312 313 315 317 313 319 323 325 325 327 329 329 324 326 325 310 305
306 306 309 307 308 308 311 311 309 309 309 309 310 309 309 310 312 314 311 312 311 312 313 314 312 310 310 310 310 313 314 315 315 320 321 319 321 325 328 325 322 319 320 312
304 305 307 306 306 308 309 309 308 307 308 308 308 308 309 310 311 311 310 312 309 309 309 311 312 310 309 308 307 310 312 312 313 316 316 316 317 319 322 321 318 316 314 311
302 299 302 302 304 304 306 306 307 307 307 307 308 309 309 310 309 310 310 309 309 309 309 312 310 311 309 307 305 307 309 310 311 313 312 311 312 313 314 316 316 312 309 305
307 307 306 305 303 303 302 304 304 307 307 308 309 309 309 309 308 309 308 308 307 309 310 313 312 309 307 308 305 304 306 308 309 308 309 307 306 308 309 309 309 308 307 305
302 301 301 301 301 302 302 302 303 305 306 308 308 308 309 308 308 310 309 305 304 304 306 311 314 309 306 307 308 302 303 304 306 305 306 305 304 303 304 304 304 303 303 302
302 302 303 303 305 304 304 306 307 307 307 307 308 308 307 307 308 309 306 304 305 306 307 312 311 310 306 306 307 302 302 303 302 303 303 304 304 302 301 299 302 302 300 300
302 303 304 304 304 305 306 307 306 306 306 307 308 308 307 308 307 305 302 301 305 307 306 308 309 307 306 305 304 302 302 302 301 300 301 303 303 302 302 300 299 299 301 299
303 303 303 304 304 304 305 305 306 306 306 306 308 309 308 306 306 306 307 305 305 306 307 307 310 310 308 306 304 303 302 301 301 301 300 301 300 301 301 300 299 298 297 297
303 302 302 302 303 303 304 304 304 306 306 307 308 309 308 307 307 306 305 305 304 305 306 305 306 310 307 305 304 303 302 301 300 300 300 301 299 299 299 298 298 298 297 296
302 302 301 300 302 301 300 300 302 304 307 307 308 311 309 306 308 307 303 302 302 303 304 304 304 307 304 303 303 303 302 301 300 300 301 298 301 301 300 299 298 298 298 297
301 300 300 300 299 298 299 301 303 304 306 304 307 308 309 309 307 304 303 303 302 302 306 305 306 305 303 302 301 301 302 302 301 301 301 300 300 302 301 300 299 298 298 298
301 301 301 303 300 301 300 302 302 303 303 303 304 304 304 304 303 302 302 301 302 301 305 306 305 303 302 300 300 300 300 299 301 301 301 301 300 300 300 300 299 299 299 299
302 300 301 300 300 300 301 302 302 302 303 304 303 306 306 304 303 302 301 302 301 301 301 301 301 301 301 303 301 301 300 300 298 300 300 301 302 302 301 301 300 301 301 300
Wind_Speed
2 5 5 6 4 7 6 5 7 7 10 14 12 9 9 6 5 9 9 9 9 10 9 8 10 8 8 5 6 4 3 3 3 5 5 7 10 10 10 8 8 8 8 8
3 4 6 5 5 7 3 4 5 8 2 3 6 4 2 5 5 4 6 10 9 8 9 7 6 5 3 7 5 3 4 4 3 4 7 8 9 9 8 9 10 9 9 8
5 4 2 4 8 5 4 3 8 6 6 5 9 6 4 2 3 3 4 5 9 9 8 4 2 1 6 0 4 3 4 4 4 5 4 5 6 7 9 9 7 9 9 8
4 4 5 6 4 5 9 1 5 5 15 8 1 3 5 4 3 6 6 5 6 7 3 2 5 7 7 4 3 4 5 4 3 5 7 5 3 6 4 4 7 6 7 8
7 5 2 1 5 8 5 1 4 17 13 11 6 3 4 3 3 3 4 4 4 2 1 5 3 5 8 7 4 0 3 7 8 5 7 7 5 4 1 4 7 10 13 9
4 6 9 7 5 7 9 4 9 20 17 15 6 4 4 2 2 3 4 3 4 3 2 5 6 5 5 4 4 5 6 7 7 5 8 9 4 4 5 6 4 9 16 24
3 2 6 4 3 4 6 8 18 19 23 20 10 7 5 4 2 3 3 6 4 4 4 5 7 7 9 9 9 9 8 7 7 7 8 7 4 1 4 5 11 10 21 20
3 3 5 3 2 7 5 2 14 11 18 10 1 11 14 8 7 1 3 5 5 6 6 6 8 8 7 7 9 10 10 8 7 7 6 6 5 7 4 5 9 9 23 26
4 4 2 3 5 2 4 14 6 11 4 8 5 9 9 6 4 4 3 1 3 3 5 5 6 6 8 10 12 12 9 9 9 8 7 6 6 2 3 1 2 4 5 2
5 3 5 4 3 5 4 11 9 9 11 7 12 6 4 4 6 5 2 2 2 2 3 5 6 7 6 9 10 11 10 9 8 8 8 7 6 6 4 4 3 2 5 8
2 3 8 7 7 11 8 10 10 6 5 7 11 6 5 5 4 4 2 1 3 3 3 3 4 6 7 9 10 10 10 8 8 6 7 4 4 4 4 5 3 4 4 3
7 12 12 9 7 10 13 9 8 9 6 5 5 6 5 4 2 2 2 1 1 2 2 2 4 4 5 6 8 9 9 7 6 6 5 4 2 3 9 7 8 10 7 5
6 13 3 7 10 5 7 8 6 8 7 6 3 4 4 4 3 4 3 2 2 0 2 2 3 4 5 6 6 7 7 7 7 6 5 5 4 3 2 2 5 5 4 5
9 14 6 8 9 9 10 8 7 6 5 5 5 2 4 4 4 5 4 3 4 2 2 3 4 5 7 8 7 7 7 8 6 6 4 5 5 3 3 2 1 0 3 6
8 4 9 12 11 7 8 11 8 7 6 5 4 5 5 6 5 5 4 4 4 4 3 4 5 6 7 8 9 8 7 6 6 6 4 5 5 4 2 4 3 2 2 3
7 11 14 15 11 10 10 8 10 8 6 5 6 6 6 5 4 4 4 2 2 2 3 3 3 5 6 6 8 6 7 9 6 5 5 5 4 3 2 3 3 3 2 2
13 7 10 9 12 11 10 9 9 9 7 8 7 7 7 6 5 5 4 2 3 1 2 3 3 4 5 6 7 6 6 6 9 5 4 4 4 4 3 2 1 3 3 3
10 14 15 18 14 11 8 8 8 8 7 7 8 8 8 7 7 6 5 3 2 3 4 2 3 4 6 7 7 6 5 6 4 4 4 4 5 4 4 3 4 3 3 5
5 9 8 8 8 8 7 7 7 7 6 7 9 7 6 6 6 6 5 4 4 4 4 3 5 5 5 11 11 7 6 6 5 4 3 4 3 3 3 4 4 4 4 4
9 7 9 8 7 6 6 4 6 6 5 6 7 8 7 5 7 7 5 5 3 3 1 3 4 4 4 8 11 6 6 6 5 4 3 3 3 3 3 5 4 4 4 4
10 10 9 8 7 6 6 6 6 6 5 6 9 9 9 7 6 7 6 4 2 1 3 5 2 2 1 5 6 5 5 5 4 4 4 3 2 2 4 4 5 5 5 5
8 7 7 7 7 5 5 5 5 5 5 6 7 9 9 6 6 5 4 4 3 4 2 0 2 4 5 10 5 4 5 5 5 4 4 4 3 2 4 5 5 5 6 6
7 6 6 6 6 6 5 4 4 5 6 6 8 9 8 6 4 5 3 3 3 5 4 3 4 1 4 3 4 3 4 6 7 6 5 5 4 4 4 5 5 6 7 7
5 5 5 4 6 5 6 2 3 3 5 5 5 6 8 6 2 1 2 4 0 4 3 3 5 8 5 1 2 4 4 5 4 6 5 8 6 5 4 4 6 7 7 7
4 4 5 5 5 3 6 4 5 4 6 5 5 4 5 3 3 3 3 1 3 3 2 4 9 9 3 2 1 1 4 4 4 5 6 8 5 4 1 4 6 7 7 7
3 3 2 3 4 3 3 4 4 3 4 4 3 3 4 4 4 4 4 4 3 4 4 3 3 3 3 3 3 3 3 5 3 2 6 4 2 4 2 4 5 6 6 6
4 3 3 3 3 3 2 3 3 3 3 3 5 3 5 5 4 4 4 3 3 3 2 1 1 3 4 5 5 4 3 3 5 5 2 4 5 5 4 3 4 5 4 4
Wind_Direction
210 182 158 178 179 155 188 198 159 222 186 185 170 184 183 178 208 133 104 70 67 59 29 3 14 31 30 28 38 47 328 304 296 282 251 232 228 217 218 212 214 217 205 220
172 207 204 202 219 145 109 123 73 120 142 142 143 135 208 238 251 246 144 145 127 105 73 357 16 26 360 25 330 325 297 293 261 259 267 254 242 231 209 218 215 207 213 208
225 198 197 303 216 156 130 120 141 172 213 168 159 154 142 82 41 50 35 7 67 74 93 260 236 203 59 61 274 20 8 336 336 298 295 282 237 222 222 225 225 226 226 202
164 107 210 239 295 143 112 136 209 119 142 134 48 65 110 102 83 60 59 48 64 86 84 234 308 263 166 188 55 23 333 321 315 334 322 319 323 242 246 259 242 239 238 223
142 182 257 206 181 152 105 328 183 128 119 108 119 113 31 77 107 122 96 88 81 101 143 216 244 319 24 50 64 210 327 317 311 322 297 280 283 24 117 76 42 357 305 233
144 155 198 223 196 121 115 185 223 137 137 145 141 100 262 261 27 32 54 78 65 37 12 23 359 7 31 17 354 356 318 300 294 278 281 288 304 227 255 217 110 354 324 301
146 166 272 226 143 108 137 232 187 170 154 157 164 166 166 132 4 31 27 12 23 39 35 11 359 5 13 356 349 324 324 317 310 320 322 299 281 220 190 40 53 0 293 286
97 137 277 121 66 160 195 103 159 177 157 158 185 146 137 163 161 163 355 4 16 12 8 7 10 10 1 344 326 323 330 328 345 344 330 333 277 210 238 208 145 171 235 254
157 217 337 334 286 343 176 142 135 143 168 151 120 136 135 147 143 162 188 263 10 12 7 358 11 14 355 337 336 331 339 331 340 345 354 338 0 309 221 169 114 215 192 249
89 24 310 350 326 79 76 111 121 126 138 135 128 116 110 126 144 150 165 173 127 79 6 343 4 1 351 338 335 330 333 334 339 348 352 24 2 357 357 37 13 333 3 13
138 101 43 311 288 123 91 112 109 98 127 130 125 145 156 155 154 140 121 58 48 21 337 359 8 354 346 342 338 333 329 335 337 343 353 51 40 11 21 37 348 46 41 9
213 177 157 205 191 134 131 139 141 122 91 70 93 119 111 116 123 125 170 1 72 38 345 360 7 354 348 341 337 329 328 332 333 332 339 336 143 56 34 46 50 58 35 359
221 175 152 161 127 115 123 126 101 115 126 127 105 141 124 137 159 140 132 164 157 59 32 358 354 346 338 345 342 333 322 323 323 323 334 321 322 180 160 354 22 355 55 96
153 117 83 169 158 146 132 128 111 102 109 138 148 118 147 167 165 148 123 139 132 103 30 5 351 357 345 339 346 330 330 325 331 320 340 326 314 316 163 179 129 99 44 40
168 34 132 116 125 121 121 128 129 141 147 155 168 165 165 166 170 142 139 144 123 99 54 3 357 354 352 352 348 342 342 336 333 326 333 317 319 320 78 110 111 48 349 9
112 113 129 137 141 128 133 138 147 163 163 158 169 177 180 153 131 120 103 88 51 25 344 354 2 344 351 1 357 350 343 337 332 327 337 341 340 338 12 108 123 126 90 359
116 113 120 131 148 150 160 163 165 172 169 167 175 159 142 145 140 135 136 121 129 78 345 327 355 360 359 1 13 358 343 333 341 331 351 343 342 339 348 23 99 79 66 16
159 150 162 159 162 163 160 168 162 167 183 169 151 152 148 153 155 154 145 142 112 59 37 6 354 10 9 3 11 6 347 329 334 342 349 357 351 347 353 28 43 42 25 23
98 130 127 130 146 148 150 163 171 183 163 154 149 152 141 134 145 135 124 116 87 69 344 343 23 28 25 13 6 349 348 341 338 350 343 342 11 13 17 25 41 39 30 29
113 111 117 116 117 133 143 154 145 147 153 140 125 125 119 117 122 131 141 129 154 167 269 39 44 30 21 36 12 343 342 345 342 3 1 2 27 43 40 54 56 56 52 50
118 112 112 123 127 125 135 143 136 137 142 144 144 144 139 138 133 141 128 126 222 156 86 45 50 56 323 67 41 353 354 348 359 14 5 355 10 49 80 66 61 61 59 51
101 100 109 119 121 114 118 118 115 122 130 125 121 128 134 140 134 133 163 157 190 190 151 129 32 31 40 45 29 346 0 357 17 17 28 19 1 46 72 75 72 67 66 58
89 98 100 116 125 122 105 110 128 136 131 133 140 149 155 154 152 146 150 181 158 206 198 229 238 80 70 43 35 5 17 21 31 21 36 36 27 29 59 72 77 78 75 71
86 121 105 105 110 105 112 111 119 136 138 131 132 138 144 144 166 58 86 104 98 258 243 217 207 168 151 124 50 47 36 29 29 39 31 49 23 21 29 71 84 78 78 73
90 86 100 120 117 119 126 123 105 95 103 96 110 139 137 132 139 163 117 128 77 26 356 114 134 136 157 166 157 113 78 43 32 42 29 48 360 12 27 86 85 91 85 77
66 84 113 88 113 116 118 104 94 92 112 120 109 109 110 105 103 100 103 107 94 81 98 133 164 188 192 194 195 195 153 139 122 105 125 129 24 27 234 109 94 88 86 80
105 120 113 83 69 96 108 115 110 113 122 118 110 107 118 115 116 111 114 117 106 94 83 94 287 271 257 211 193 205 192 153 149 152 161 159 168 165 127 95 109 102 101 94